Location: Ffm
(50.0000°N, 8.5000°E)
Time: 09:46:13
(UTC+01:00)

Envisat - Pass Details

Date: 29 October 2020
Orbit: 764 x 766 km, 98.1° (Epoch: 03 December)

Event Time Altitude Azimuth Distance (km) Brightness Sun altitude
Rises 18:02:06 0° 185° (S) 3,220 6.4 -9.3°
Reaches altitude 10° 18:04:31 10° 192° (SSW) 2,298 5.8 -9.7°
Maximum altitude 18:09:18 41° 263° (W) 1,096 4.5 -10.4°
Drops below altitude 10° 18:14:08 10° 334° (NNW) 2,314 5.7 -11.2°
Sets 18:16:35 0° 341° (NNW) 3,245 6.4 -11.6°
